TimePST,TemperatureF,Dew PointF,Humidity,Sea Level PressureIn,VisibilityMPH,Wind Direction,Wind SpeedMPH,Gust SpeedMPH,PrecipitationIn,Events,Conditions,WindDirDegrees,DateUTC
12:04 AM,51.8,48.2,88,30.02,3.0,SSE,21.9,39.1,N/A,,Overcast,160,2012-11-12 08:04:00
12:53 AM,52.0,50.0,93,30.03,8.0,South,23.0,32.2,0.01,,Overcast,180,2012-11-12 08:53:00
1:12 AM,51.8,50.0,94,30.02,7.0,South,19.6,31.1,N/A,,Overcast,170,2012-11-12 09:12:00
1:36 AM,51.8,50.0,94,30.02,2.0,South,18.4,-,0.01,,Overcast,170,2012-11-12 09:36:00
1:53 AM,51.1,51.1,100,30.04,2.5,South,15.0,-,0.05,Rain,Rain,170,2012-11-12 09:53:00
2:05 AM,51.8,51.8,100,30.03,3.0,South,12.7,-,0.03,Rain,Light Rain,180,2012-11-12 10:05:00
2:15 AM,51.8,51.8,100,30.04,1.8,South,11.5,-,0.09,Rain,Rain,180,2012-11-12 10:15:00
2:24 AM,51.8,51.8,100,30.04,2.0,South,9.2,-,0.13,Rain,Rain,190,2012-11-12 10:24:00
2:31 AM,51.8,51.8,100,30.04,2.0,SSW,6.9,-,0.15,Rain,Light Rain,200,2012-11-12 10:31:00
2:37 AM,51.8,50.0,94,30.04,3.0,South,6.9,-,0.16,Rain,Light Rain,190,2012-11-12 10:37:00
2:53 AM,51.1,50.0,96,30.05,4.0,South,10.4,-,0.16,Rain,Light Rain,180,2012-11-12 10:53:00
3:35 AM,51.8,51.8,100,30.04,2.5,SW,4.6,-,0.02,,Overcast,220,2012-11-12 11:35:00
3:53 AM,50.0,50.0,100,30.06,2.0,SSW,4.6,-,0.02,,Overcast,200,2012-11-12 11:53:00
4:02 AM,50.0,50.0,100,30.05,1.8,SW,3.5,-,0.01,,Overcast,230,2012-11-12 12:02:00
4:21 AM,51.8,50.0,94,30.05,3.0,West,3.5,-,0.02,Rain,Light Rain,270,2012-11-12 12:21:00
4:37 AM,50.0,50.0,100,30.05,5.0,Calm,Calm,-,0.02,,Overcast,0,2012-11-12 12:37:00
4:44 AM,50.0,48.2,94,30.05,9.0,West,4.6,-,0.02,,Overcast,280,2012-11-12 12:44:00
4:53 AM,50.0,48.9,96,30.07,7.0,WNW,3.5,-,0.02,,Overcast,290,2012-11-12 12:53:00
5:04 AM,50.0,48.2,94,30.06,4.0,West,3.5,-,N/A,,Overcast,280,2012-11-12 13:04:00
5:11 AM,50.0,48.2,94,30.06,4.0,NNW,5.8,-,N/A,,Overcast,330,2012-11-12 13:11:00
5:29 AM,48.2,48.2,100,30.07,9.0,Calm,Calm,-,N/A,,Overcast,0,2012-11-12 13:29:00
5:53 AM,48.0,46.9,96,30.09,10.0,NW,3.5,-,N/A,,Overcast,310,2012-11-12 13:53:00
6:12 AM,48.2,46.4,93,30.09,10.0,Calm,Calm,-,N/A,,Overcast,0,2012-11-12 14:12:00
6:23 AM,46.4,46.4,100,30.09,10.0,Calm,Calm,-,N/A,,Overcast,0,2012-11-12 14:23:00
6:34 AM,46.4,46.4,100,30.09,10.0,ENE,3.5,-,N/A,,Overcast,60,2012-11-12 14:34:00
6:53 AM,48.0,46.9,96,30.11,10.0,Calm,Calm,-,N/A,,Overcast,0,2012-11-12 14:53:00
7:17 AM,46.4,46.4,100,30.11,10.0,NNE,3.5,-,N/A,,Overcast,20,2012-11-12 15:17:00
7:28 AM,46.4,46.4,100,30.11,7.0,North,3.5,-,N/A,,Overcast,360,2012-11-12 15:28:00
7:53 AM,46.9,46.0,97,30.13,10.0,Calm,Calm,-,N/A,,Overcast,0,2012-11-12 15:53:00
8:07 AM,46.4,46.4,100,30.12,10.0,Calm,Calm,-,N/A,,Overcast,0,2012-11-12 16:07:00
8:23 AM,46.4,46.4,100,30.12,10.0,NE,4.6,-,N/A,,Overcast,50,2012-11-12 16:23:00
8:40 AM,46.4,46.4,100,30.13,1.2,NE,4.6,-,N/A,,Overcast,50,2012-11-12 16:40:00
8:53 AM,46.9,46.9,100,30.14,0.2,ENE,4.6,-,N/A,Fog,Fog,60,2012-11-12 16:53:00
9:12 AM,48.2,48.2,100,30.13,0.2,Calm,Calm,-,N/A,Fog,Fog,0,2012-11-12 17:12:00
9:20 AM,48.2,48.2,100,30.13,0.2,Calm,Calm,-,N/A,Fog,Fog,0,2012-11-12 17:20:00
9:31 AM,48.2,48.2,100,30.13,0.2,East,4.6,-,N/A,Fog,Fog,80,2012-11-12 17:31:00
9:53 AM,48.9,48.9,100,30.14,0.2,East,4.6,-,N/A,Fog,Fog,80,2012-11-12 17:53:00
10:03 AM,48.2,48.2,100,30.14,1.0,East,4.6,-,N/A,,Overcast,80,2012-11-12 18:03:00
10:10 AM,48.2,48.2,100,30.14,3.0,East,4.6,-,N/A,,Overcast,80,2012-11-12 18:10:00
10:27 AM,50.0,50.0,100,30.14,6.0,Calm,Calm,-,N/A,,Overcast,0,2012-11-12 18:27:00
10:50 AM,51.8,50.0,94,30.15,10.0,Calm,Calm,-,N/A,,Overcast,0,2012-11-12 18:50:00
10:53 AM,51.1,51.1,100,30.16,10.0,Calm,Calm,-,N/A,,Overcast,0,2012-11-12 18:53:00
11:04 AM,51.8,51.8,100,30.15,10.0,Calm,Calm,-,N/A,,Overcast,0,2012-11-12 19:04:00
11:53 AM,53.1,50.0,89,30.16,10.0,Calm,Calm,-,N/A,,Overcast,0,2012-11-12 19:53:00
12:53 PM,54.0,50.0,86,30.16,10.0,SSW,3.5,-,N/A,,Overcast,210,2012-11-12 20:53:00
1:53 PM,53.1,48.9,86,30.16,10.0,South,8.1,-,N/A,,Overcast,190,2012-11-12 21:53:00
2:24 PM,53.6,48.2,82,30.15,10.0,South,6.9,-,N/A,,Overcast,180,2012-11-12 22:24:00
2:31 PM,53.6,48.2,82,30.15,10.0,South,8.1,-,N/A,,Overcast,190,2012-11-12 22:31:00
2:53 PM,53.1,48.9,86,30.17,10.0,South,6.9,-,N/A,,Overcast,170,2012-11-12 22:53:00
3:05 PM,51.8,48.2,88,30.15,10.0,South,6.9,-,N/A,,Overcast,180,2012-11-12 23:05:00
3:53 PM,52.0,48.9,89,30.17,10.0,SSE,4.6,-,N/A,,Overcast,160,2012-11-12 23:53:00
4:12 PM,51.8,48.2,88,30.16,10.0,SSE,8.1,-,N/A,,Overcast,160,2012-11-13 00:12:00
4:53 PM,51.1,48.9,92,30.18,10.0,SSE,5.8,-,N/A,,Overcast,160,2012-11-13 00:53:00
5:33 PM,51.8,48.2,88,30.17,10.0,South,5.8,-,N/A,,Overcast,170,2012-11-13 01:33:00
5:53 PM,50.0,48.9,96,30.18,10.0,South,4.6,-,N/A,,Overcast,170,2012-11-13 01:53:00
6:53 PM,51.1,48.9,92,30.19,10.0,Calm,Calm,-,N/A,,Overcast,0,2012-11-13 02:53:00
7:05 PM,50.0,48.2,94,30.18,10.0,Calm,Calm,-,N/A,,Overcast,0,2012-11-13 03:05:00
7:29 PM,50.0,48.2,94,30.18,10.0,Calm,Calm,-,N/A,,Overcast,0,2012-11-13 03:29:00
7:53 PM,50.0,48.9,96,30.19,10.0,Calm,Calm,-,N/A,,Overcast,0,2012-11-13 03:53:00
8:53 PM,50.0,48.9,96,30.20,10.0,SE,3.5,-,N/A,,Overcast,140,2012-11-13 04:53:00
9:29 PM,51.8,48.2,88,30.19,10.0,SSE,4.6,-,N/A,,Overcast,150,2012-11-13 05:29:00
9:37 PM,51.8,48.2,88,30.19,10.0,SSE,4.6,-,N/A,,Overcast,150,2012-11-13 05:37:00
9:53 PM,51.1,48.9,92,30.21,10.0,SSE,4.6,-,N/A,,Overcast,150,2012-11-13 05:53:00
10:06 PM,51.8,48.2,88,30.20,9.0,SSE,5.8,-,N/A,,Overcast,150,2012-11-13 06:06:00
10:36 PM,51.8,48.2,88,30.20,9.0,SSE,5.8,-,0.00,,Overcast,150,2012-11-13 06:36:00
10:50 PM,51.8,48.2,88,30.19,8.0,SSE,6.9,-,0.00,,Overcast,160,2012-11-13 06:50:00
10:53 PM,51.1,48.9,92,30.21,7.0,SSE,8.1,-,0.01,,Overcast,160,2012-11-13 06:53:00
11:22 PM,51.8,50.0,94,30.20,8.0,SSE,4.6,-,0.02,Rain,Light Rain,160,2012-11-13 07:22:00
11:37 PM,51.8,50.0,94,30.20,10.0,South,5.8,-,0.02,,Mostly Cloudy,170,2012-11-13 07:37:00
11:53 PM,51.1,48.9,92,30.21,10.0,SSE,5.8,-,0.02,,Mostly Cloudy,160,2012-11-13 07:53:00